Location: Sungai Payau
(2.9500°N, 113.2000°E)
Time: 00:34:14
(UTC+00:00)

Daily predictions for brighter satellites

Satellite Brightness Start Highest point End
(mag) Time Altitude Azimuth Time Altitude Azimuth Time Altitude Azimuth
USA 215 3.8 10:53:11 10° ESE 10:59:20 44° NE 11:05:29 10° NNW
CZ-4 R/B 4.4 10:56:45 10° SSE 11:00:49 67° ENE 11:04:50 10° N
Cosmos 1805 Rocket 4.2 10:56:48 10° NNE 11:00:51 36° E 11:04:53 10° SSE
Cosmos 44 Rocket 3.3 10:56:26 10° N 11:01:00 57° ENE 11:05:31 10° SSE
Cosmos 1536 2.8 10:57:45 10° N 11:01:42 88° WSW 11:05:38 10° S
SKYMED 3 4.3 11:01:32 10° NNE 11:05:31 80° E 11:09:33 10° S
HETE-2 4.5 11:02:35 10° W 11:06:30 65° S 11:10:24 10° E
SAR-Lupe-2 4.1 11:03:18 10° SSE 11:06:39 39° ENE 11:09:59 10° N
Meteor 1-11 Rocket 3.9 11:01:26 10° N 11:07:23 80° E 11:13:18 10° S
Cosmos 1428 Rocket 4.5 11:02:34 10° S 11:08:36 65° E 11:14:37 10° NNE
Cosmos 1805 4.5 11:08:06 10° NE 11:10:54 21° E 11:13:35 10° SE
Helios 1B rocket 2.8 11:09:36 10° S 11:13:27 61° W 11:17:15 10° NNW
Landsat 7 4.4 11:12:59 10° SE 11:17:19 37° ENE 11:21:36 10° N
OAO 3 Rocket 3.2 11:13:43 10° NW 11:18:16 63° NE 11:22:03 15° ESE
Star 37E S/N 40062 3.1 11:16:46 10° WSW 11:20:43 69° NNW 11:22:41 10° NE
Fermi 3.9 11:17:56 10° SW 11:21:49 50° SSE 11:25:24 12° ENE
Cosmos 1328 Rocket 3.6 11:22:31 10° S 11:26:49 78° W 11:31:05 10° N
SWIFT 4.0 11:23:56 10° W 11:27:24 29° NNW 11:30:53 10° NE
CZ-4 R/B 3.3 11:29:36 13° ENE 11:29:36 13° ENE 11:31:25 10° NE
ARIANE 5 R/B 3.4 11:06:50 10° W 11:33:05 81° S 11:36:05 20° E
Radarsat Rocket 4.2 11:28:19 10° SSE 11:34:29 85° WSW 11:41:24 10° NNW
FALCON 9 R/B 4.4 11:33:27 10° NNE 11:36:39 16° NE 11:40:50 12° E
Cosmos 2360 4.2 11:36:05 10° NNW 11:41:48 90° ENE 11:47:10 12° SSE
USA 59 Rocket 3.3 11:38:05 10° WNW 11:43:58 27° WSW 11:51:21 10° S
Cosmos 1850 Rocket 4.3 11:42:12 10° S 11:47:09 41° ESE 11:52:03 10° NNE
Ariane H10+ 2.6 11:43:14 10° W 11:47:41 49° SSW 11:48:11 41° SSE
Cosmos 1743 Rocket 4.5 11:43:38 10° NNW 11:47:54 49° W 11:52:09 10° SSW
Cosmos 1674 2.3 11:44:38 10° S 11:48:07 89° WNW 11:51:33 10° N
KORONAS-FOTON 3.6 11:47:07 19° S 11:49:39 64° E 11:53:19 10° NNE
USA 234 3.2 11:43:19 10° NE 11:49:51 86° SE 11:56:24 10° SW
Meteor 2-12 Rocket 4.5 11:44:15 10° S 11:50:17 58° E 11:56:17 10° NNE
Palapa B4 Rocket 3.6 11:46:44 10° SW 11:50:26 30° SSE 11:50:31 30° SSE
Cosmos 1975 2.6 11:46:47 10° N 11:50:33 60° E 11:51:54 36° SSE
ATLAS CENTAUR R/B 4.4 11:54:23 10° W 11:56:18 14° WNW 11:58:11 10° NNW
